OpenBCM V1.13 (Linux)

Packet Radio Mailbox

DB0FHN

[JN59NK Nuernberg]

 Login: GUEST





  
F1EBE  > KEPLER   22.02.03 12:15l 99 Lines 5169 Bytes #999 (0) @ EU
BID : 22544_F8KOH
Read: DB0FHN GUEST
Subj: 2L  Sat  Amat  052.day
Path: DB0FHN<DB0ZWI<DB0HST<F6GGY<F4CEP<F1EBN<F6KDS<F5KCK<F8KAE<F8KOH
Sent: 030222/0903Z @:F8KOH.FNOR.FRA.EU #:22544 [Vernon] FBB7.00i $:22544_F8KOH
From: F1EBE@F8KOH.FNOR.FRA.EU
To  : KEPLER@EU


AO-7                    
1 07530U 74089B   03051.68685736 -.00000029  00000-0  10000-3 0  1742
2 07530 101.7612  99.4538 0012274  73.9399 286.3023 12.53564472293455
AO-10                   
1 14129U 83058B   03051.35064092 -.00000260  00000-0  10000-3 0  9183
2 14129  25.9612 163.9843 6025988 329.3281   6.3071  2.05868966120105
UO-11                   
1 14781U 84021B   03052.52235975  .00001621  00000-0  23195-3 0   763
2 14781  98.1188  26.4686 0008748 195.5543 164.5399 14.78011020 16670
UO-14                   
1 20437U 90005B   03052.15530833  .00000163  00000-0  77208-4 0  1695
2 20437  98.2731  95.6459 0010229 190.4525 169.6441 14.31239489682861
AO-16                   
1 20439U 90005D   03051.68049958  .00000213  00000-0  95920-4 0  8556
2 20439  98.3166 106.8890 0010428 198.7637 161.3167 14.31473758682836
DO-17                   
1 20440U 90005E   03051.66900634  .00000227  00000-0  10049-3 0  7375
2 20440  98.3373 110.7766 0010408 197.8408 162.2407 14.31751744682907
WO-18                   
1 20441U 90005F   03052.56980371  .00000189  00000-0  86790-4 0   177
2 20441  98.3330 110.8500 0011183 195.8955 164.1879 14.31555572683012
LO-19                   
1 20442U 90005G   03052.19845169  .00000196  00000-0  89217-4 0  9682
2 20442  98.3446 113.5221 0011458 196.3524 163.7287 14.31718661683012
FO-20                   
1 20480U 90013C   03051.88447958 -.00000044  00000-0 -24385-4 0  4798
2 20480  99.0472  14.1918 0540777 358.6365   1.3227 12.83329931610819
RS-12/13                
1 21089U 91007A   03051.87026102  .00000070  00000-0  58462-4 0  5174
2 21089  82.9228 179.6712 0027730 281.2699  78.5350 13.74404678604105
UO-22                   
1 21575U 91050B   03052.56694080  .00000385  00000-0  13748-3 0  7319
2 21575  98.1414  44.5369 0008236 119.4188 240.7823 14.39158335608711
KO-23                   
1 22077U 92052B   03051.89994342 -.00000037  00000-0  10000-3 0  2889
2 22077  66.0869 120.8488 0015592 273.0752  86.8485 12.86408518494609
AO-27                   
1 22825U 93061C   03052.20331005  .00000173  00000-0  84733-4 0  4919
2 22825  98.2748  81.7659 0007451 250.2176 109.8202 14.28944819490257
IO-26                   
1 22826U 93061D   03051.60307552  .00000200  00000-0  94745-4 0  3131
2 22826  98.2754  82.3140 0008081 253.9630 106.0658 14.29167789490216
KO-25                   
1 22828U 93061F   03051.65290853  .00000162  00000-0  79519-4 0  4302
2 22828  98.2711  82.6236 0009113 229.8362 130.2023 14.29509495458427
POSAT                   
1 22829U 93061G   03051.59173893  .00000276  00000-0  12360-3 0  4553
2 22829  98.2720  83.1722 0008960 230.0938 129.9452 14.29770467490343
RS-15                   
1 23439U 94085A   03049.29359592 -.00000042  00000-0  24083-5 0  6825
2 23439  64.8151  41.9255 0146804 115.2566 246.3616 11.27547528335565
FO-29                   
1 24278U 96046B   03051.90822265  .00000010  00000-0  46987-4 0  5716
2 24278  98.5355 202.8092 0350246 210.3270 147.7184 13.52872823321625
TO-31                   
1 25396U 98043C   03051.92563611 -.00000043  00000-0  00000-0 0  8954
2 25396  98.6272 128.9888 0004012 121.7023 238.4551 14.23511378239869
GO-32                   
1 25397U 98043D   03051.94836632  .00000101  00000-0  63946-4 0  1592
2 25397  98.6221 127.8867 0002065 123.5244 236.6131 14.22960932239834
SO-33                   
1 25509U 98061B   03051.60944406  .00000815  00000-0  15126-3 0  7841
2 25509  31.4311 141.6443 0357954 320.5477  36.9584 14.27438864225607
PO-34                   
1 25520U 98064B   03051.66887401  .00002576  00000-0  12839-3 0  6410
2 25520  28.4621 209.8743 0005318  13.2561 346.8047 15.13899796237908
ISS           
1 25544U 98067A   03052.52386138  .00018292  00000-0  23916-3 0  7136
2 25544  51.6333 241.1562 0012049 229.6160 160.6986 15.58619412242967
UO-36                   
1 25693U 99021A   03052.32732472  .00000473  00000-0  87549-4 0  7232
2 25693  64.5606   2.3423 0020853 316.2738  43.6673 14.76394670206662
OO-38                   
1 26063U 00004C   03051.71597537  .00000188  00000-0  85267-4 0  7250
2 26063 100.2128 106.6864 0036821 281.2017  78.5023 14.35483018160699
SO-41                   
1 26545U 00057A   03051.77715620  .00001115  00000-0  16659-3 0  4160
2 26545  64.5589  25.1342 0051978 238.4525 121.1513 14.78991456129557
MO-46                   
1 26548U 00057D   03052.26885278  .00001290  00000-0  18081-3 0  4182
2 26548  64.5589  16.4823 0045119 237.8165 121.8530 14.81284228129765
SO-42                   
1 26549U 00057E   03052.01782115  .00001244  00000-0  18747-3 0  6979
2 26549  64.5519  28.5210 0056465 238.4346 121.1233 14.77929937129500
AO-40                   
1 26609U 00072B   03050.21683058 -.00000170  00000-0  10000-3 0  3125
2 26609   8.1020  63.9362 7942557 145.4197 310.7583  1.25596576 10593
PCsat                   
1 26931U 01043C   03051.97465000  .00000218  00000-0  11840-3 0  4330
2 26931  67.0472 249.4208 0005014 267.6666  92.3863 14.29117442 72697
NO-45                   
1 26932U 01043D   03051.95239549  .00000146  00000-0  89850-4 0  4074
2 26932  67.0539 249.1824 0004779 241.1937 118.8684 14.29296023 72719
AO-49         


Read previous mail | Read next mail


 21.06.2026 20:17:22lGo back Go up